TimeCST,TemperatureF,Dew PointF,Humidity,Sea Level PressureIn,VisibilityMPH,Wind Direction,Wind SpeedMPH,Gust SpeedMPH,PrecipitationIn,Events,Conditions,WindDirDegrees,DateUTC
12:13 AM,35.6,35.6,100,29.59,0.8,NW,9.2,-,N/A,,Overcast,320,2013-12-03 06:13:00
12:34 AM,35.6,35.6,100,29.59,0.5,NW,10.4,-,N/A,Fog,Fog,320,2013-12-03 06:34:00
12:54 AM,35.6,35.6,100,29.59,0.5,NW,12.7,-,N/A,Fog,Fog,320,2013-12-03 06:54:00
1:13 AM,35.6,33.8,93,29.60,0.5,NW,11.5,17.3,N/A,Fog,Fog,320,2013-12-03 07:13:00
1:34 AM,35.6,35.6,100,29.60,0.5,NW,11.5,-,N/A,Fog,Fog,320,2013-12-03 07:34:00
1:54 AM,35.6,35.6,100,29.61,0.5,NW,12.7,-,N/A,Fog,Fog,320,2013-12-03 07:54:00
2:13 AM,35.6,35.6,100,29.62,0.5,NNW,11.5,-,N/A,Fog,Fog,330,2013-12-03 08:13:00
2:34 AM,33.8,33.8,100,29.61,0.5,NNW,10.4,-,N/A,Fog,Fog,340,2013-12-03 08:34:00
2:54 AM,33.8,33.8,100,29.62,0.5,NNW,11.5,-,N/A,Fog,Fog,330,2013-12-03 08:54:00
3:13 AM,33.8,33.8,100,29.63,0.5,NW,11.5,-,N/A,Fog,Fog,320,2013-12-03 09:13:00
3:34 AM,33.8,33.8,100,29.63,0.8,NW,10.4,-,N/A,,Overcast,320,2013-12-03 09:34:00
3:53 AM,33.8,33.8,100,29.62,0.8,NNW,12.7,-,N/A,,Overcast,340,2013-12-03 09:53:00
4:14 AM,33.8,33.8,100,29.63,0.8,NNW,12.7,-,N/A,,Overcast,330,2013-12-03 10:14:00
4:34 AM,33.8,33.8,100,29.63,0.8,NW,11.5,17.3,N/A,,Overcast,320,2013-12-03 10:34:00
4:53 AM,33.8,33.8,100,29.62,0.8,NNW,11.5,-,N/A,,Overcast,330,2013-12-03 10:53:00
5:14 AM,33.8,33.8,100,29.63,1.2,NNW,15.0,-,N/A,,Overcast,340,2013-12-03 11:14:00
5:34 AM,33.8,33.8,100,29.64,1.2,NNW,13.8,-,N/A,,Overcast,330,2013-12-03 11:34:00
5:53 AM,33.8,33.8,100,29.64,1.5,NNW,13.8,-,N/A,,Overcast,330,2013-12-03 11:53:00
6:13 AM,32.0,32.0,100,29.65,1.2,NNW,12.7,-,N/A,,Overcast,330,2013-12-03 12:13:00
6:34 AM,32.0,32.0,100,29.65,1.2,NNW,11.5,-,N/A,,Overcast,330,2013-12-03 12:34:00
6:53 AM,32.0,32.0,100,29.66,1.2,NNW,12.7,-,N/A,,Overcast,330,2013-12-03 12:53:00
7:13 AM,32.0,32.0,100,29.66,1.8,NNW,11.5,-,N/A,,Overcast,330,2013-12-03 13:13:00
7:34 AM,32.0,32.0,100,29.66,2.0,NNW,11.5,-,N/A,,Overcast,340,2013-12-03 13:34:00
7:53 AM,32.0,32.0,100,29.67,2.5,NNW,12.7,-,N/A,,Overcast,340,2013-12-03 13:53:00
8:13 AM,32.0,32.0,100,29.67,3.0,NNW,11.5,-,N/A,,Scattered Clouds,340,2013-12-03 14:13:00
8:34 AM,30.2,30.2,100,29.67,4.0,NNW,12.7,-,N/A,,Clear,340,2013-12-03 14:34:00
8:53 AM,30.2,30.2,100,29.68,2.5,NNW,13.8,-,N/A,,Scattered Clouds,340,2013-12-03 14:53:00
9:14 AM,30.2,30.2,100,29.69,1.8,NNW,16.1,-,N/A,,Mostly Cloudy,340,2013-12-03 15:14:00
9:34 AM,30.2,30.2,100,29.70,1.8,NNW,15.0,18.4,N/A,,Mostly Cloudy,330,2013-12-03 15:34:00
9:53 AM,30.2,30.2,100,29.70,1.8,NNW,13.8,-,N/A,,Mostly Cloudy,340,2013-12-03 15:53:00
10:14 AM,30.2,30.2,100,29.70,1.8,NNW,17.3,-,N/A,,Mostly Cloudy,340,2013-12-03 16:14:00
10:33 AM,30.2,30.2,100,29.70,2.0,NNW,12.7,-,N/A,,Mostly Cloudy,340,2013-12-03 16:33:00
10:54 AM,30.2,30.2,100,29.71,2.5,NNW,13.8,18.4,N/A,,Mist,340,2013-12-03 16:54:00
11:14 AM,30.2,30.2,100,29.72,2.5,NNW,12.7,-,N/A,,Scattered Clouds,330,2013-12-03 17:14:00
11:33 AM,30.2,30.2,100,29.72,2.5,NNW,11.5,-,N/A,,Scattered Clouds,330,2013-12-03 17:33:00
11:54 AM,30.2,30.2,100,29.70,2.5,NNW,16.1,-,N/A,,Scattered Clouds,340,2013-12-03 17:54:00
12:14 PM,30.2,30.2,100,29.69,1.8,North,15.0,-,N/A,,Overcast,350,2013-12-03 18:14:00
12:33 PM,30.2,30.2,100,29.69,1.5,NNW,13.8,-,N/A,,Overcast,340,2013-12-03 18:33:00
12:54 PM,30.2,30.2,100,29.70,1.5,NNW,13.8,-,N/A,,Overcast,330,2013-12-03 18:54:00
1:13 PM,30.2,30.2,100,29.70,1.5,NNW,11.5,-,N/A,,Overcast,340,2013-12-03 19:13:00
1:34 PM,30.2,30.2,100,29.70,1.2,NNW,11.5,-,N/A,,Overcast,330,2013-12-03 19:34:00
1:54 PM,30.2,30.2,100,29.70,1.0,NNW,12.7,-,N/A,,Overcast,330,2013-12-03 19:54:00
2:13 PM,30.2,30.2,100,29.68,1.0,North,11.5,-,N/A,,Overcast,350,2013-12-03 20:13:00
2:34 PM,30.2,30.2,100,29.70,1.0,NW,11.5,-,N/A,,Overcast,320,2013-12-03 20:34:00
2:54 PM,30.2,30.2,100,29.71,1.2,NNW,15.0,-,N/A,,Overcast,330,2013-12-03 20:54:00
3:13 PM,30.2,30.2,100,29.71,1.2,NNW,13.8,-,N/A,,Mostly Cloudy,330,2013-12-03 21:13:00
3:34 PM,30.2,30.2,100,29.73,1.5,NNW,13.8,-,N/A,,Mostly Cloudy,330,2013-12-03 21:34:00
3:54 PM,30.2,30.2,100,29.74,2.0,NNW,12.7,-,N/A,,Mist,330,2013-12-03 21:54:00
4:13 PM,30.2,30.2,100,29.74,2.5,NNW,17.3,-,N/A,,Mist,330,2013-12-03 22:13:00
4:33 PM,28.4,28.4,100,29.75,3.0,NNW,13.8,17.3,N/A,,Mist,330,2013-12-03 22:33:00
4:54 PM,28.4,28.4,100,29.76,3.0,NNW,13.8,-,N/A,,Scattered Clouds,330,2013-12-03 22:54:00
5:13 PM,28.4,28.4,100,29.76,3.0,NNW,15.0,-,N/A,,Mostly Cloudy,330,2013-12-03 23:13:00
5:34 PM,28.4,28.4,100,29.77,4.0,NNW,11.5,-,N/A,,Overcast,330,2013-12-03 23:34:00
5:54 PM,28.4,28.4,100,29.78,4.0,NW,13.8,-,N/A,,Overcast,320,2013-12-03 23:54:00
6:13 PM,28.4,28.4,100,29.78,4.0,NNW,13.8,-,N/A,,Overcast,330,2013-12-04 00:13:00
6:34 PM,28.4,28.4,100,29.77,4.0,NNW,13.8,-,N/A,,Overcast,330,2013-12-04 00:34:00
6:53 PM,28.4,28.4,100,29.76,5.0,NNW,15.0,-,N/A,,Overcast,340,2013-12-04 00:53:00
7:13 PM,28.4,26.6,93,29.74,7.0,NNW,9.2,-,N/A,,Overcast,340,2013-12-04 01:13:00
7:34 PM,28.4,28.4,100,29.74,7.0,NNW,10.4,-,N/A,,Mostly Cloudy,340,2013-12-04 01:34:00
7:53 PM,28.4,26.6,93,29.77,7.0,NNW,12.7,-,N/A,,Mostly Cloudy,330,2013-12-04 01:53:00
8:13 PM,28.4,26.6,93,29.77,7.0,NNW,12.7,-,N/A,,Overcast,330,2013-12-04 02:13:00
8:34 PM,26.6,24.8,93,29.78,10.0,NNW,12.7,-,N/A,,Overcast,330,2013-12-04 02:34:00
8:53 PM,26.6,24.8,93,29.78,10.0,NNW,10.4,-,N/A,,Overcast,330,2013-12-04 02:53:00
9:13 PM,26.6,24.8,93,29.79,7.0,NNW,11.5,-,N/A,,Overcast,330,2013-12-04 03:13:00
9:34 PM,26.6,24.8,93,29.79,4.0,NNW,12.7,-,N/A,,Overcast,330,2013-12-04 03:34:00
9:53 PM,26.6,24.8,93,29.78,3.0,NNW,13.8,-,N/A,,Overcast,340,2013-12-04 03:53:00
10:14 PM,26.6,26.6,100,29.77,2.5,NNW,10.4,-,N/A,,Mostly Cloudy,340,2013-12-04 04:14:00
10:34 PM,26.6,26.6,100,29.76,2.5,NNW,10.4,-,N/A,,Scattered Clouds,340,2013-12-04 04:34:00
10:53 PM,26.6,26.6,100,29.77,2.5,NNW,10.4,-,N/A,,Scattered Clouds,330,2013-12-04 04:53:00
11:14 PM,26.6,26.6,100,29.77,2.0,NW,9.2,-,N/A,,Mist,320,2013-12-04 05:14:00
11:34 PM,26.6,26.6,100,29.77,2.0,NNW,8.1,-,N/A,,Mist,330,2013-12-04 05:34:00
11:53 PM,26.6,26.6,100,29.77,2.5,NW,8.1,-,N/A,,Mist,320,2013-12-04 05:53:00